Regional Weather Roundup
Issued by NWS San Angelo, TX

Home | Current Version | Previous Version | Text Only | Print | Product List | Glossary On
Versions: 1 2 3 4 5 6 7 8 9 10 11 12 13 14 15 16 17 18 19 20 21 22 23 24 25 26 27 28 29 30 31 32 33 34 35 36 37 38 39 40 41 42 43 44 45 46 47 48 49 50
000
ASUS44 KSJT 311310
RWRSJT
WEST CENTRAL TEXAS REGIONAL WEATHER ROUNDUP
NATIONAL WEATHER SERVICE SAN ANGELO TX
700 AM CST SAT JAN 31 2015

NOTE: "FAIR" INDICATES FEW OR NO CLOUDS BELOW 12,000 FEET WITH NO
SIGNIFICANT WEATHER AND/OR OBSTRUCTIONS TO VISIBILITY.

TXZ049-054-064>066-071>073-076>078-098-099-113-114-127-128-139-140-
154-155-168>170-311400
...LOCATIONS ACROSS WEST CENTRAL TEXAS...

CITY           SKY/WX    TMP DP  RH WIND       PRES   REMARKS
SAN ANGELO     RAIN      49  44  83 SE7       30.05S
ABILENE        CLOUDY    47  35  63 SE14      30.08F
DYESS AFB      CLOUDY    47  37  66 SE15      30.07F
JUNCTION       CLOUDY    49  41  74 SE10      30.08S
SWEETWATER     CLOUDY    45  41  88 SE10      30.08S WCI  39
BROWNWOOD      CLOUDY    48  37  66 SE12G17   30.12R
COLEMAN        CLOUDY    47  38  70 SE10      30.10S
SONORA         LGT RAIN  48  48 100 SE6G12    30.09S
OZONA          RAIN      46  45  93 S8        30.07S
BRADY          CLOUDY    46  37  71 SE13      30.07F
$$

TEXAS PANHANDLE/OKLAHOMA PANHANDLE

CITY           SKY/WX    TMP DP  RH WIND       PRES   REMARKS
AMARILLO       LGT RAIN  33  32  96 SE8       30.04S FOG     WCI  26
BORGER         LGT RAIN  35  32  88 S6        30.05F WCI  30
CANADIAN       LGT RAIN  37  36  94 SE3       30.07F
DALHART        FOG       34  32  92 S9        30.00F VSB 1/2 WCI  27
DUMAS          CLOUDY    33  32  96 S9        30.01F WCI  25
GUYMON         NOT AVBL
HEREFORD       RAIN      35  35  99 SE5       30.03S WCI  31
PAMPA          HVY RAIN  33  32  96 S8        30.06R WCI  26
PERRYTON         N/A     35  33  94 S10       30.04S WCI  27
$$

SOUTHERN PANHANDLE/SOUTH PLAINS/ROLLING PLAINS

CITY           SKY/WX    TMP DP  RH WIND       PRES   REMARKS
LUBBOCK        LGT RAIN  36  35  96 SE13      30.01F FOG     WCI  27
SNYDER         HVY RAIN N/A N/A N/A CALM      30.08R
CHILDRESS      LGT RAIN  39  37  92 SE7       30.10S WCI  34
SEMINOLE       DRIZZLE   38  38  99 SE14      30.00S WCI  30
$$

PERMIAN BASIN

CITY           SKY/WX    TMP DP  RH WIND       PRES   REMARKS
MIDLAND        RAIN      43  42  97 E13       29.99F FOG     WCI  36
ODESSA         LGT RAIN  42  41  96 SE9       29.99F FOG     WCI  37
WINK           CLOUDY    46  42  86 SE13      29.97R
$$

FAR WEST/SOUTHWEST MOUNTAINS/TRANS PECOS

CITY           SKY/WX    TMP DP  RH WIND       PRES   REMARKS
ALPINE         CLOUDY    45  44  97 SW5       30.01F
DRYDEN           N/A     47  46  97 E8        30.01F
EL PASO        CLOUDY    45  41  86 N5        29.89F
FORT STOCKTON  CLOUDY    46  44  93 SE13      29.96F
GUADALUPE PASS CLOUDY    37  37 100 E6        29.95R FOG     WCI  32
MARFA          CLOUDY    45  43  93 SE12      29.97S WCI  39
PECOS          CLOUDY    45  44  96 CALM      29.98S FOG
$$

DALLAS/FORT WORTH METROPLEX

CITY           SKY/WX    TMP DP  RH WIND       PRES   REMARKS
DFW AIRPORT    CLOUDY    47  31  53 SE12      30.20S
FTW MEACHAM    CLOUDY    49  32  52 SE14      30.18F
DAL-EXECUTIVE  CLOUDY    48  31  51 SE10      30.20F
GRAND PRAIRIE  NOT AVBL
ADDISON        CLOUDY    46  30  53 SE10G17   30.21F
MESQUITE       MOSUNNY   45  34  65 E5        30.24
LANCASTER      CLOUDY    44  33  64 E5        30.23S
$$

NORTH CENTRAL TEXAS

CITY           SKY/WX    TMP DP  RH WIND       PRES   REMARKS
SHRMAN/DENISON PTSUNNY   43  34  71 E8        30.24S WCI  38
GAINESVILLE    CLOUDY    44  32  60 E13       30.22F WCI  38
BRIDGEPORT     CLOUDY    48  34  59 SE5       30.19S
DENTON         CLOUDY    47  31  53 SE12      30.20F
WAXAHACHIE     CLOUDY    46  35  66 SE7       30.22S
GRANBURY       CLOUDY    48  34  59 E9        30.19S
$$

WESTERN NORTH TEXAS

CITY           SKY/WX    TMP DP  RH WIND       PRES   REMARKS
WICHITA FALLS  LGT RAIN  43  37  79 E9        30.14F WCI  38
VERNON         CLOUDY    43  35  73 E8        30.14R WCI  38
BRECKENRIDGE   CLOUDY    50  33  52 SE10      30.12S
COMANCHE       CLOUDY    47  37  70 SE10      30.13S
$$

CENTRAL AND SOUTH CENTRAL TEXAS

CITY           SKY/WX    TMP DP  RH WIND       PRES   REMARKS
AUSTIN/BERGSTM CLOUDY    49  42  77 E5        30.15S
WACO           CLOUDY    46  34  62 SE12      30.19F
HILLSBORO      CLOUDY    46  33  60 E10G16    30.20S
TEMPLE         CLOUDY    45  32  61 E8        30.17S
KILLEEN-GRAY   CLOUDY    45  37  73 SE8       30.15F
FORT HOOD      CLOUDY    45  36  69 SE8       30.16S
GEORGETOWN     CLOUDY    46  37  71 VRB6      30.16S
LAGO VISTA     CLOUDY    49  44  83 E8        30.14S
SAN MARCOS     CLOUDY    50  45  81 E6        30.16R
NEW BRAUNFELS  CLOUDY    50  47  89 E6        30.14R
RANDOLPH AFB   CLOUDY    50  48  93 NE8       30.13S
SAN ANTONIO    LGT RAIN  51  48  89 E10       30.13S
STINSON        CLOUDY    51  48  89 E8        30.11S
PLEASANTON     NOT AVBL
LA GRANGE      CLOUDY    50  44  77 E5        30.14F
GIDDINGS       CLOUDY    47  38  72 E6        30.20S
$$

EAST TEXAS

CITY           SKY/WX    TMP DP  RH WIND       PRES   REMARKS
PARIS          MOCLDY    41  28  60 E7        30.28R WCI  36
CLARKSVILLE    NOT AVBL
TYLER          CLOUDY    44  32  62 E9        30.25R WCI  39
LONGVIEW       CLOUDY    43  31  62 E6        30.26R WCI  39
PALESTINE      PTSUNNY   44  34  68 E3        30.25S
NACOGDOCHES    MOCLDY    41  32  70 SE5       30.25F WCI  38
$$

TEXAS HILL COUNTRY AND EDWARDS PLATEAU

CITY           SKY/WX    TMP DP  RH WIND       PRES   REMARKS
LLANO          CLOUDY    48  41  76 SE7       30.16F
HORSESHOE BAY  CLOUDY    49  42  77 SE5       30.14S
KERRVILLE      CLOUDY    45  42  90 E5        30.11S
FREDERICKSBRG  CLOUDY    47  39  73 E3        30.10F
ROCKSPRINGS    NOT AVBL
HONDO          LGT RAIN  50  48  93 E9        30.12S FOG
UVALDE         RAIN      47  46  93 NE8       30.10S
DEL RIO        LGT RAIN  50  49  96 S7        30.08R FOG
$$

SOUTHEAST TEXAS

CITY           SKY/WX    TMP DP  RH WIND       PRES   REMARKS
COLLEGE STN    CLOUDY    45  35  68 E8        30.20F
CALDWELL       CLOUDY    45  36  70 E6        30.22S
CROCKETT       PTSUNNY   45  37  76 E3        30.27R
BRENHAM        CLOUDY    47  39  73 E8        30.20S
HUNTSVILLE     PTCLDY    42  34  73 E3        30.23R
CONROE         PTCLDY    40  34  79 E3        30.23R
HOUSTON BUSH   MOCLDY    42  37  82 NE7       30.22R WCI  38
HOUSTON HOBBY  MOCLDY    49  44  83 NE9       30.20R
PERLAND        CLOUDY    51  46  83 E13       30.21R
WHARTON        CLOUDY    50  47  90 NE5       30.18S
$$

THE UPPER TEXAS COAST

CITY           SKY/WX    TMP DP  RH WIND       PRES   REMARKS
ORANGE         PTSUNNY   40  37  87 NE6       30.26R WCI  36
PORT ARTHUR    MOCLDY    45  38  76 NE9       30.23R
GALVESTON      CLOUDY    57  50  77 E13       30.19F
ANGLETON       CLOUDY    54  51  90 E8        30.17S
BAY CITY       CLOUDY    54  53  97 NE3       30.16S
$$

TEXAS COASTAL BEND, RIO GRANDE PLAINS DEEP SOUTH TEXAS

CITY           SKY/WX    TMP DP  RH WIND       PRES   REMARKS
VICTORIA       CLOUDY    56  51  84 E14       30.14R
BEEVILLE       DRIZZLE   56  56 100 E7        30.10S
ROCKPORT       CLOUDY    62  58  86 E10       30.10S
PORT ARANSAS   CLOUDY    64  61  91 SE8       30.10R
PORT LAVACA    CLOUDY    55  53  92 NE9       30.13S
CORPUS CHRISTI CLOUDY    61  59  93 E6        30.09S
KINGSVILLE NAS MOCLDY    59  59 100 NE5       30.08F
COTULLA        NOT AVBL
LAREDO         CLOUDY    60  58  93 E10       30.07S
BROWNSVILLE    MOCLDY    62  61  96 E7        30.07S
PORT ISABEL    PTCLDY    64  61  90 SE10      30.06F
HEBBRONVILLE   FOG       59  58  97 E6        30.08S VSB 1/2
MCALLEN        CLOUDY    64  61  90 SE9       30.06S
WESLACO        CLOUDY    63  60  88 SE6       30.06S
FALFURRIAS     CLOUDY    59  58  94 NE3       30.07S
EDINBURG       CLOUDY    65  61  88 SE8       30.06F
$$


USA.gov is the U.S. government's official web portal to all federal, state and local government web resources and services.